Location: Horowhenua
(40.7500°S, 175.3333°E)
Time: 05:18:50
(UTC+00:00)

Tiangong - Pass Details

Date: 28 January 2023
Orbit: 373 x 379 km, 41.5° (Epoch: 01 April)

Event Time Altitude Azimuth Distance (km) Brightness Sun altitude
Exits shadow 14:00:33 - 92° (E) 1,940 1.7 -27.6°
Enters shadow 14:58:11 -65° 286° (WNW) 11,916 5.4 -22.0°
Maximum altitude 15:33:11 74° 14° (NNE) 413 -2.2 -17.6°
